GW1821 Weather Reports


Display with metric or nautical units.
time (UTC)temp
F
wind
direction
speed
MPH
gust
MPH
rain 1hr
in
rain 24hr
in
rain mn
in
humidity
%
barometer
mb
20240617060029 74 325 4.0 13.0 0.00 0.32 0.00 71 1005.2
20240617055514 74 349 5.0 13.0 0.00 0.32 0.00 70 1005.2
20240617055015 74 355 4.0 13.0 0.00 0.33 0.00 70 1005.1
20240617054506 74 317 3.0 9.0 0.00 0.33 0.00 71 1005.4
20240617054006 74 9 3.0 9.0 0.00 0.33 0.00 72 1005.5
20240617053508 75 316 3.0 9.0 0.00 0.34 0.00 72 1005.5
20240617052958 75 340 3.0 6.0 0.00 0.34 0.00 74 1005.6
20240617052458 75 65 3.0 9.0 0.00 0.35 0.00 75 1005.8
20240617052221 75 305 3.0 9.0 0.00 0.35 0.00 76 1005.6
20240617051454 75 337 3.0 9.0 0.00 0.36 0.00 77 1005.7
20240617050955 75 329 3.0 11.0 0.00 0.36 0.00 77 1005.6
20240617050450 75 355 3.0 11.0 0.00 0.36 0.00 77 1005.6
20240617045951 76 335 4.0 12.0 0.00 0.37 0.37 79 1005.5
20240617045936 76 320 4.0 12.0 0.00 0.37 0.37 79 1005.4
20240617044943 76 348 3.0 10.0 0.00 0.38 0.37 83 1005.2
20240617044443 77 294 3.0 9.0 0.00 0.38 0.37 84 1005.1
20240617044429 77 317 3.0 10.0 0.00 0.38 0.37 83 1005.1
20240617043441 77 301 3.0 10.0 0.00 0.38 0.37 83 1005.1
20240617042938 77 306 2.0 9.0 0.00 0.38 0.37 83 1005.1
20240617042436 77 296 2.0 8.0 0.00 0.38 0.37 83 1004.9
20240617041922 78 237 2.0 4.0 0.00 0.38 0.37 83 1004.8
20240617041417 78 325 2.0 4.0 0.00 0.38 0.37 83 1004.6
20240617040917 78 323 1.0 4.0 0.00 0.38 0.37 84 1004.4
20240617040643 78 312 1.0 4.0 0.00 0.38 0.37 84 1004.3
20240617035916 78 271 1.0 3.0 0.00 0.38 0.37 85 1004.3
20240617035418 78 263 1.0 3.0 0.00 0.38 0.37 84 1004.3
20240617034913 78 244 1.0 5.0 0.00 0.38 0.37 84 1004.3
20240617034412 78 243 1.0 5.0 0.00 0.38 0.37 84 1004.2
20240617033904 78 235 1.0 2.0 0.00 0.38 0.37 84 1004.1
20240617033355 78 235 0.0 2.0 0.00 0.38 0.37 84 1003.9
20240617032845 79 235 0.0 1.0 0.00 0.38 0.37 84 1003.8
20240617032341 79 235 1.0 2.0 0.00 0.38 0.37 84 1003.8
20240617031839 79 235 0.0 2.0 0.00 0.39 0.37 84 1003.9
20240617031335 79 235 1.0 3.0 0.00 0.39 0.37 83 1003.8
20240617030818 79 235 1.0 3.0 0.00 0.40 0.37 83 1003.8
20240617030317 78 235 1.0 3.0 0.00 0.41 0.37 84 1003.6
20240617025816 78 234 1.0 3.0 0.00 0.41 0.37 84 1003.4
20240617025316 78 234 1.0 2.0 0.00 0.42 0.37 84 1003.0
20240617024815 78 234 1.0 2.0 0.00 0.43 0.37 84 1002.8
20240617024753 79 234 1.0 3.0 0.00 0.44 0.37 83 1002.8
20240617024025 79 234 1.0 3.0 0.00 0.46 0.37 83 1002.9
20240617023526 79 234 0.0 1.0 0.00 0.47 0.37 83 1002.8
20240617022750 79 234 0.0 2.0 0.00 0.48 0.37 82 1002.6
20240617022247 79 234 1.0 2.0 0.00 0.50 0.37 82 1002.6
20240617021745 79 234 1.0 2.0 0.00 0.51 0.37 81 1002.4
20240617021242 80 234 1.0 3.0 0.00 0.52 0.37 81 1002.4
20240617020742 80 234 1.0 3.0 0.00 0.53 0.37 81 1002.4
20240617020234 80 198 1.0 2.0 0.00 0.54 0.37 80 1002.3
20240617015950 80 198 1.0 2.0 0.00 0.56 0.37 79 1002.4
20240617015503 81 198 1.0 2.0 0.00 0.57 0.37 78 1002.1
20240617014725 81 198 1.0 3.0 0.00 0.57 0.37 79 1001.9
20240617014225 82 198 1.0 3.0 0.00 0.57 0.37 76 1001.7
20240617013723 82 198 1.0 3.0 0.00 0.57 0.37 77 1001.7
20240617013219 83 198 0.0 3.0 0.00 0.57 0.37 77 1001.8
20240617012718 83 273 1.0 3.0 0.00 0.57 0.37 75 1001.7
20240617012214 83 273 1.0 4.0 0.00 0.58 0.37 74 1001.8
20240617011701 84 273 1.0 6.0 0.00 0.58 0.37 73 1001.8
20240617011133 84 273 1.0 7.0 0.00 0.58 0.37 73 1001.8
20240617010852 85 190 1.0 7.0 0.00 0.60 0.37 72 1001.6
20240617010132 85 190 2.0 7.0 0.00 0.61 0.37 71 1001.7
20240617005630 85 273 3.0 7.0 0.00 0.62 0.37 70 1001.7
20240617005122 85 236 3.0 9.0 0.00 0.64 0.37 70 1001.7
20240617004617 86 236 3.0 9.0 0.00 0.64 0.37 68 1001.7
20240617004121 86 223 3.0 10.0 0.00 0.65 0.37 69 1001.8
20240617003612 86 269 4.0 10.0 0.00 0.65 0.37 68 1001.8
20240617003109 87 242 4.0 10.0 0.00 0.65 0.37 68 1001.8
20240617002610 87 220 5.0 11.0 0.00 0.65 0.37 66 1001.7
20240617002321 87 223 4.0 11.0 0.00 0.66 0.37 67 1001.6
20240617001558 87 271 3.0 9.0 0.00 0.66 0.37 68 1001.6
20240617001058 87 229 4.0 10.0 0.00 0.66 0.37 68 1001.6
20240617000553 87 250 5.0 10.0 0.00 0.66 0.37 67 1001.5
20240617000316 87 202 4.0 10.0 0.00 0.66 0.37 67 1001.4
20240616235545 88 175 4.0 10.0 0.00 0.66 0.37 67 1001.3
20240616235044 88 279 4.0 13.0 0.00 0.66 0.37 68 1001.1
20240616234542 87 238 5.0 13.0 0.00 0.66 0.37 68 1001.0
20240616234042 87 272 6.0 14.0 0.00 0.66 0.37 68 1001.0
20240616233539 87 333 6.0 17.0 0.00 0.67 0.37 68 1000.8
20240616233037 87 283 5.0 17.0 0.00 0.68 0.37 70 1000.8
20240616232535 87 273 4.0 10.0 0.00 0.69 0.37 72 1000.8
20240616232033 87 251 5.0 10.0 0.00 0.70 0.37 72 1000.7
20240616231533 86 288 4.0 12.0 0.00 0.71 0.37 73 1000.7
20240616231029 87 213 5.0 13.0 0.00 0.72 0.37 72 1000.6
20240616230758 87 190 5.0 13.0 0.00 0.74 0.37 72 1000.6
20240616230027 87 235 5.0 12.0 0.00 0.75 0.37 73 1000.6
20240616225527 87 276 4.0 9.0 0.00 0.77 0.37 72 1000.6
20240616225024 87 174 4.0 11.0 0.00 0.78 0.37 73 1000.5
20240616224516 87 211 4.0 14.0 0.00 0.80 0.37 73 1000.5
20240616224234 87 235 4.0 14.0 0.00 0.81 0.37 73 1000.4
20240616223511 87 199 4.0 11.0 0.00 0.83 0.37 73 1000.4
20240616223004 87 183 4.0 11.0 0.00 0.85 0.37 72 1000.3
20240616222503 87 236 4.0 10.0 0.00 0.87 0.37 73 1000.1
20240616221957 87 255 4.0 13.0 0.00 0.90 0.37 73 1000.1
20240616221719 87 283 4.0 13.0 0.00 0.92 0.37 72 1000.0
20240616220955 87 225 5.0 13.0 0.00 0.94 0.37 73 1000.1
20240616220457 87 254 5.0 13.0 0.00 0.96 0.37 71 1000.0
20240616215955 87 260 4.0 11.0 0.00 0.98 0.37 73 1000.0
20240616215455 87 129 5.0 13.0 0.00 1.00 0.37 73 999.8
20240616215208 87 165 6.0 13.0 0.00 1.01 0.37 71 999.8
20240616214448 87 246 5.0 13.0 0.00 1.02 0.37 71 999.8
20240616213945 87 166 6.0 13.0 0.00 1.03 0.37 71 999.8
20240616213443 87 132 6.0 14.0 0.00 1.04 0.37 73 999.8
20240616213208 87 230 5.0 14.0 0.00 1.05 0.37 71 999.7
20240616212438 87 192 6.0 14.0 0.00 1.08 0.37 71 999.7
20240616211935 88 184 6.0 14.0 0.00 1.10 0.37 71 999.7
20240616211435 88 194 5.0 14.0 0.00 1.13 0.37 70 999.8
20240616210931 87 142 4.0 9.0 0.00 1.15 0.37 71 999.8
20240616210430 87 194 5.0 11.0 0.00 1.17 0.37 71 999.8
20240616205925 87 217 6.0 12.0 0.00 1.18 0.37 72 1000.0
20240616205423 87 174 5.0 12.0 0.00 1.19 0.37 73 999.8
20240616204923 86 277 5.0 15.0 0.00 1.20 0.37 76 1000.0
20240616204420 85 239 6.0 15.0 0.00 1.22 0.37 74 1000.1
20240616203913 85 183 5.0 13.0 0.00 1.25 0.37 74 1000.0
20240616203409 85 244 4.0 15.0 0.00 1.29 0.37 74 1000.0
20240616202909 85 215 7.0 15.0 0.00 1.33 0.37 74 1000.1
20240616202410 86 128 8.0 15.0 0.00 1.36 0.37 74 1000.2
20240616201907 85 202 6.0 15.0 0.00 1.40 0.37 75 1000.0
20240616201628 85 231 5.0 12.0 0.00 1.42 0.37 74 1000.1
20240616200907 85 201 7.0 18.0 0.00 1.45 0.37 74 1000.0
20240616200409 85 241 7.0 18.0 0.00 1.47 0.37 74 1000.1
20240616195906 85 164 7.0 14.0 0.00 1.50 0.37 75 1000.1
20240616195405 84 226 6.0 15.0 0.00 1.52 0.37 74 1000.0
20240616194905 84 184 4.0 15.0 0.00 1.53 0.37 74 1000.0
20240616194406 84 102 5.0 15.0 0.00 1.54 0.37 75 1000.0
20240616193907 85 153 6.0 14.0 0.00 1.54 0.37 75 1000.0
20240616193359 85 172 6.0 16.0 0.00 1.55 0.37 75 1000.0
20240616192857 84 235 7.0 16.0 0.00 1.55 0.37 74 1000.0
20240616192357 84 182 6.0 14.0 0.00 1.55 0.37 74 999.8
20240616191855 84 229 5.0 13.0 0.00 1.55 0.37 74 999.7
20240616191620 85 235 6.0 13.0 0.00 1.55 0.37 74 999.8
20240616190855 85 89 6.0 15.0 0.00 1.55 0.37 73 999.8
20240616190350 85 194 6.0 15.0 0.00 1.55 0.37 75 999.8
20240616185850 85 211 6.0 15.0 0.00 1.55 0.37 75 999.7
20240616185350 85 286 6.0 17.0 0.00 1.55 0.37 75 999.6
20240616184849 85 165 8.0 17.0 0.00 1.55 0.37 75 999.6
20240616184349 85 187 8.0 17.0 0.00 1.55 0.37 74 999.4
20240616183848 85 111 7.0 19.0 0.00 1.55 0.37 75 999.5
20240616183347 85 218 7.0 19.0 0.00 1.55 0.37 73 999.6
20240616183106 85 248 5.0 14.0 0.00 1.55 0.37 74 999.6
20240616182345 85 140 4.0 18.0 0.00 1.55 0.37 79 999.6
20240616181838 84 207 5.0 18.0 0.00 1.55 0.37 77 999.5
20240616181552 84 227 7.0 18.0 0.00 1.55 0.37 77 999.6
20240616181101 83 194 7.0 18.0 0.00 1.55 0.37 76 999.6
20240616180332 83 162 7.0 17.0 0.00 1.55 0.37 78 999.7
20240616180056 83 130 7.0 17.0 0.00 1.55 0.37 78 1000.0
20240616175329 82 182 6.0 18.0 0.00 1.55 0.37 79 1000.2
20240616175047 82 192 6.0 18.0 0.00 1.56 0.37 78 1000.1
20240616174551 82 188 5.0 11.0 0.00 1.56 0.37 79 1000.1
20240616173822 82 197 6.0 17.0 0.00 1.56 0.37 79 1000.1
20240616173326 82 195 5.0 18.0 0.00 1.56 0.37 79 1000.1
20240616173321 82 265 6.0 18.0 0.00 1.56 0.37 78 1000.1
20240616172321 82 168 5.0 13.0 0.00 1.56 0.37 79 1000.1
20240616172311 82 183 6.0 13.0 0.00 1.56 0.37 80 1000.2
20240616171601 82 161 6.0 14.0 0.00 1.56 0.37 79 1000.2
20240616170316 81 171 7.0 18.0 0.00 1.56 0.37 80 1000.2
20240616170042 81 164 8.0 18.0 0.00 1.56 0.37 80 1000.0
20240616165316 81 189 7.0 15.0 0.00 1.56 0.37 82 999.7
20240616164807 80 146 7.0 15.0 0.00 1.56 0.37 82 999.8
20240616164305 79 207 5.0 15.0 0.00 1.56 0.37 83 1000.0
20240616163805 79 174 5.0 10.0 0.00 1.56 0.37 86 1000.2
20240616163306 78 162 4.0 11.0 0.00 1.56 0.37 84 1000.4
20240616163028 78 189 5.0 12.0 0.00 1.56 0.37 83 1000.5
20240616162257 78 256 5.0 12.0 0.00 1.56 0.37 83 1000.8
20240616162017 78 277 4.0 10.0 0.00 1.56 0.37 83 1000.7
20240616161251 78 204 5.0 11.0 0.00 1.56 0.37 84 1000.6
20240616160751 78 190 5.0 11.0 0.00 1.56 0.37 85 1000.5
20240616160249 78 220 4.0 11.0 0.00 1.56 0.37 85 1000.5
20240616155748 77 115 4.0 10.0 0.00 1.56 0.37 86 1000.5
20240616155248 77 137 5.0 10.0 0.00 1.56 0.37 86 1000.6
20240616154743 77 178 5.0 15.0 0.00 1.56 0.37 86 1000.6
20240616154242 77 148 6.0 18.0 0.00 1.56 0.37 86 1000.6
20240616153732 76 196 5.0 18.0 0.00 1.56 0.37 85 1000.8
20240616153231 76 148 4.0 15.0 0.00 1.56 0.37 87 1001.0
20240616152728 76 205 5.0 15.0 0.00 1.56 0.37 86 1001.1
20240616152223 75 198 5.0 12.0 0.00 1.56 0.37 87 1001.0
20240616151717 75 150 4.0 10.0 0.00 1.56 0.37 88 1001.0
20240616151217 75 209 4.0 10.0 0.00 1.56 0.37 89 1001.1
20240616150717 74 129 6.0 12.0 0.00 1.56 0.37 90 1001.0
20240616150217 74 190 7.0 13.0 0.00 1.56 0.37 90 1000.9
20240616145716 73 190 7.0 16.0 0.00 1.56 0.37 92 1000.9
20240616145438 73 176 7.0 16.0 0.00 1.56 0.37 93 1000.9
20240616144930 72 142 6.0 14.0 0.00 1.56 0.37 94 1001.0
20240616144434 72 161 6.0 14.0 0.00 1.56 0.37 95 1001.1
20240616143705 71 171 5.0 12.0 0.00 1.56 0.37 95 1001.0
20240616143426 71 192 4.0 12.0 0.00 1.56 0.37 95 1001.1
20240616142705 71 161 4.0 9.0 0.00 1.56 0.37 95 1001.2
20240616142158 71 138 5.0 10.0 0.00 1.56 0.37 95 1001.3
20240616141656 70 116 5.0 12.0 0.00 1.56 0.37 95 1001.4
20240616141147 70 164 4.0 12.0 0.00 1.56 0.37 95 1001.4
20240616140645 70 190 4.0 12.0 0.00 1.56 0.37 95 1001.4
20240616140143 70 219 4.0 15.0 0.00 1.56 0.37 95 1001.5
20240616135633 70 202 4.0 15.0 0.00 1.56 0.37 96 1001.5
20240616135132 70 142 5.0 15.0 0.00 1.56 0.37 96 1001.4
20240616134628 70 142 5.0 15.0 0.00 1.56 0.37 96 1001.1
20240616134125 69 134 4.0 10.0 0.00 1.56 0.37 96 1001.1
20240616133624 69 155 4.0 10.0 0.00 1.56 0.37 96 1001.1
20240616133122 69 159 4.0 9.0 0.00 1.56 0.37 96 1001.2
20240616132620 69 136 3.0 10.0 0.00 1.56 0.37 96 1001.2
20240616132115 69 186 3.0 10.0 0.00 1.56 0.37 96 1001.2
20240616131616 69 145 3.0 12.0 0.00 1.56 0.37 96 1001.1
20240616131115 68 170 3.0 12.0 0.00 1.56 0.37 96 1001.0
20240616130615 68 145 3.0 8.0 0.00 1.56 0.37 96 1000.8
20240616130116 68 161 3.0 8.0 0.00 1.56 0.37 96 1000.8
20240616125836 68 150 2.0 6.0 0.00 1.56 0.37 96 1001.0
20240616125110 68 119 2.0 6.0 0.00 1.56 0.37 96 1001.1
20240616124558 68 161 2.0 7.0 0.00 1.56 0.37 96 1001.2
20240616124050 67 130 2.0 7.0 0.00 1.56 0.37 96 1001.2
20240616123552 67 163 2.0 6.0 0.00 1.56 0.37 96 1001.2
20240616123048 67 147 2.0 6.0 0.00 1.56 0.37 96 1001.3
20240616122550 67 159 1.0 4.0 0.00 1.56 0.37 96 1001.3
20240616122048 67 161 1.0 5.0 0.00 1.56 0.37 96 1001.2
20240616121549 66 161 2.0 6.0 0.00 1.56 0.37 96 1001.1
20240616121049 66 162 2.0 6.0 0.00 1.56 0.37 96 1001.1
20240616120552 66 105 2.0 8.0 0.00 1.56 0.37 96 1001.0
20240616120548 66 151 2.0 8.0 0.00 1.56 0.37 96 1001.0
20240616115548 66 136 2.0 6.0 0.00 1.56 0.37 96 1001.1
20240616115050 66 131 1.0 4.0 0.00 1.56 0.37 96 1001.2
20240616114551 66 137 2.0 7.0 0.00 1.56 0.37 96 1001.3
20240616114046 66 137 1.0 7.0 0.00 1.56 0.37 96 1001.4
20240616113808 65 169 1.0 5.0 0.00 1.56 0.37 96 1001.4
20240616113046 65 169 2.0 6.0 0.00 1.56 0.37 96 1001.5
20240616112806 65 150 2.0 6.0 0.00 1.56 0.37 96 1001.6
20240616112035 65 155 2.0 6.0 0.00 1.56 0.37 96 1001.6
20240616111533 65 162 2.0 6.0 0.00 1.56 0.37 96 1001.6
20240616111033 65 155 2.0 8.0 0.01 1.56 0.37 96 1001.7
20240616110529 65 148 2.0 8.0 0.01 1.56 0.37 96 1001.8
20240616110031 65 165 3.0 8.0 0.01 1.56 0.37 95 1001.7
20240616105526 65 173 2.0 8.0 0.01 1.56 0.37 96 1001.7
20240616105022 65 153 2.0 11.0 0.02 1.56 0.37 96 1001.7
20240616104520 65 143 2.0 11.0 0.02 1.56 0.37 95 1001.8
20240616104021 65 141 2.0 7.0 0.02 1.56 0.37 96 1001.7
20240616103520 65 161 2.0 7.0 0.02 1.56 0.37 96 1001.8
20240616103018 65 96 2.0 7.0 0.03 1.56 0.37 96 1001.7
20240616102738 64 96 2.0 7.0 0.03 1.56 0.37 96 1001.8
20240616102014 64 154 1.0 6.0 0.04 1.56 0.37 96 1001.8
20240616101510 64 155 1.0 6.0 0.04 1.56 0.37 95 1001.8
20240616101243 64 155 1.0 5.0 0.03 1.55 0.36 96 1001.7
20240616100510 64 158 1.0 5.0 0.04 1.55 0.36 95 1001.7
20240616100000 64 158 1.0 4.0 0.05 1.55 0.36 95 1001.6
20240616095459 64 158 1.0 3.0 0.05 1.55 0.36 95 1001.6
20240616094955 64 158 1.0 6.0 0.05 1.54 0.35 95 1001.6
20240616094724 64 158 1.0 6.0 0.05 1.54 0.35 95 1001.7
20240616093950 64 130 1.0 9.0 0.06 1.54 0.35 95 1001.7
20240616093707 64 141 1.0 9.0 0.06 1.53 0.34 95 1001.7
20240616092943 64 145 2.0 9.0 0.06 1.53 0.34 95 1001.7
20240616092445 64 145 3.0 9.0 0.07 1.53 0.34 95 1001.6
20240616091938 64 162 2.0 9.0 0.07 1.52 0.33 95 1001.5
20240616091431 64 66 2.0 7.0 0.08 1.52 0.33 95 1001.5
20240616091407 65 147 2.0 7.0 0.08 1.51 0.32 95 1001.5
20240616090428 65 150 2.0 8.0 0.09 1.51 0.32 95 1001.5
20240616085919 65 149 2.0 8.0 0.09 1.50 0.31 95 1001.5
20240616085416 65 167 3.0 12.0 0.09 1.50 0.31 95 1001.5
20240616084906 65 142 3.0 11.0 0.09 1.49 0.30 95 1001.6
20240616084406 65 131 2.0 9.0 0.10 1.49 0.30 95 1001.7
20240616083904 65 112 3.0 11.0 0.10 1.48 0.29 95 1001.7
20240616083401 65 115 3.0 11.0 0.10 1.47 0.28 95 1001.7
20240616082854 65 132 3.0 10.0 0.10 1.46 0.28 95 1001.8
20240616082346 65 162 3.0 10.0 0.11 1.46 0.27 95 1001.9
20240616081849 65 80 2.0 11.0 0.11 1.45 0.26 95 1002.0
20240616081345 65 155 2.0 11.0 0.11 1.44 0.25 95 1002.1
20240616081112 65 148 3.0 7.0 0.11 1.43 0.24 95 1002.1
20240616080338 65 163 3.0 9.0 0.12 1.42 0.23 95 1002.2
20240616080055 65 157 2.0 9.0 0.11 1.41 0.22 95 1002.3
20240616075546 65 155 3.0 10.0 0.11 1.40 0.22 95 1002.4
20240616074829 65 142 3.0 10.0 0.11 1.39 0.21 95 1002.5
20240616074316 65 172 3.0 8.0 0.10 1.38 0.20 95 1002.6
20240616073807 65 153 4.0 11.0 0.11 1.38 0.19 95 1002.7
20240616073525 65 148 4.0 11.0 0.11 1.37 0.18 95 1003.0
20240616072803 65 175 4.0 14.0 0.10 1.36 0.17 95 1003.0
20240616072524 65 148 5.0 14.0 0.10 1.35 0.16 95 1003.2
20240616071801 65 134 4.0 12.0 0.08 1.33 0.15 95 1003.5
20240616071255 65 156 3.0 9.0 0.07 1.32 0.14 95 1003.5
20240616070755 64 148 2.0 9.0 0.06 1.31 0.13 95 1003.6
20240616070247 64 162 1.0 4.0 0.06 1.30 0.11 95 1003.5
20240616070007 64 163 2.0 9.0 0.05 1.29 0.11 95 1003.4
20240616065242 64 121 3.0 12.0 0.05 1.29 0.10 95 1003.1
20240616064742 64 160 3.0 12.0 0.05 1.28 0.09 95 1003.4
20240616064226 64 144 3.0 9.0 0.04 1.27 0.09 95 1003.6
20240616063723 64 161 3.0 16.0 0.05 1.27 0.08 95 1003.8
20240616063441 64 161 3.0 16.0 0.04 1.26 0.07 95 1003.9
20240616062721 64 159 3.0 12.0 0.05 1.26 0.07 95 1004.0
20240616062705 64 158 4.0 12.0 0.04 1.25 0.06 95 1004.3
20240616061714 64 153 4.0 12.0 0.04 1.25 0.06 95 1004.3
20240616061434 64 173 3.0 11.0 0.05 1.25 0.06 95 1004.1
20240616060707 64 103 3.0 12.0 0.05 1.25 0.06 95 1004.2